Regional Weather Roundup
Issued by NWS

Home | Current Version | Previous Version | Text Only | Print | Product List | Glossary Off
Versions: 1 2 3 4 5 6 7 8 9 10 11 12 13 14 15 16 17 18 19 20 21 22 23 24 25 26 27 28 29 30 31 32 33 34 35 36 37 38 39 40 41 42 43 44 45 46 47 48 49 50

000
ASUS43 KIND 250809
RWRIN

WEATHER ROUNDUP FOR INDIANA
NATIONAL WEATHER SERVICE INDIANAPOLIS IN
400 AM EDT TUE APR 25 2017

NOTE: "FAIR" INDICATES FEW OR NO CLOUDS BELOW 12,000 FEET WITH NO
SIGNIFICANT WEATHER AND/OR OBSTRUCTIONS TO VISIBILITY.

* - STATION DOES NOT REPORT WEATHER SUCH AS PRECIPITATION OR FOG.

+ - STATION NOT QUALITY CONTROLLED BY THE NATIONAL WEATHER SERVICE.
    USE DATA WITH CAUTION...ESPECIALLY DEWPOINT AND RELATIVE
    HUMIDITY OBSERVATIONS.

INZ001>003-010>013-019-020-250900-
NORTHWEST INDIANA

CITY           SKY/WX    TMP DP  RH WIND       PRES   REMARKS
GARY /AIRPORT/ CLEAR     59  42  53 SE7       29.74S
KNOX *+        CLEAR     52  28  40 SE9       29.76F
LA PORTE +     PTCLDY    50  42  74 E5        29.78S
MICHIGAN CITY+ CLEAR     54  43  66 SE6       29.77S
MONTICELLO +   CLEAR     56  48  74 SE6       29.76S
RENSSELAER +   CLEAR     54  46  76 E7        29.75S
VALPARAISO     CLEAR     52  43  71 E7        29.76F

$$

LMZ046-743>745-250900-
SOUTHERN LAKE MICHIGAN

STATION/POSITION TIME  TEMP    WIND        PRES    WAVE
                       AIR SEA DIR/SP/G            HT
                 (UTC) (F)     (DEG/KT/KT) (MB)    (FT)
BURNS HARBOR     0740   59     140/ 10/ 15 1007.8F
MICHIGAN CITY    0740   58     130/ 11/ 14   N/A

$$

INZ004-005-014>016-021>024-250900-
NORTH CENTRAL INDIANA

CITY           SKY/WX    TMP DP  RH WIND       PRES   REMARKS
GOSHEN         CLEAR     52  43  71 SE8       29.79F
LOGANSPORT +   CLEAR     50  46  87 E7        29.78F
PERU/GRISSOM   CLEAR     54  53  96 E6        29.76F
ROCHESTER +    CLEAR     55  46  71 SE6       29.79F
SOUTH BEND     CLEAR     51  41  68 E8        29.80F
WARSAW +       CLEAR     50  43  76 SE6       29.79F

$$

INZ006>009-017-018-025>027-250900-
NORTHEAST INDIANA

CITY           SKY/WX    TMP DP  RH WIND       PRES   REMARKS
ANGOLA *+      CLEAR     52  46  82 SE9       29.82F
AUBURN +       CLEAR     52  45  76 E5        29.83S
FORT WAYNE     PTCLDY    52  46  80 SE7       29.81F
HUNTINGTON +   CLOUDY    53  48  84 E3        29.80S
KENDALLVILLE + CLEAR     50  46  84 SE7       29.81F

$$

INZ028-029-035-036-043>045-051>053-250900-
WEST CENTRAL INDIANA

CITY           SKY/WX    TMP DP  RH WIND       PRES   REMARKS
CRAWFORDSVL +  CLEAR     53  51  93 SE6       29.76S
GREENCASTLE +  CLEAR     52  50  93 E5        29.77S
LAFAYETTE      CLEAR     55  50  83 E6        29.75F
TERRE HAUTE    CLEAR     57  50  77 SE3       29.75S

$$

INZ030>032-037>040-046>048-054>057-064-065-250900-
CENTRAL INDIANA

CITY           SKY/WX    TMP DP  RH WIND       PRES   REMARKS
CP ATTERBURY + CLEAR     50  46  87 CALM      29.78S
FISHERS *+     CLEAR     54  54 100 CALM      29.77F
FRANKFORT +    CLEAR     56  51  83 SE8       29.78F
GREENWOOD *+   CLEAR     57  50  78 SE3       29.78S
INDIANAPOLIS   CLEAR     57  50  77 SE5       29.77S
-EAGLE CREEK   CLEAR     57  50  77 CALM      29.77S
KOKOMO +       CLEAR     53  49  86 E8        29.78F
MARION +       CLOUDY    55  52  88 SE8       29.79F
MT COMFORT *+  MOCLDY    55  52  88 E6        29.78F
SHELBYVILLE    CLEAR     59  51  75 E7        29.77F
ZIONSVILLE +   CLEAR     53  49  88 E3        29.78S

$$

INZ033-034-041-042-049-050-058-059-250900-
EAST CENTRAL INDIANA

CITY           SKY/WX    TMP DP  RH WIND       PRES   REMARKS
MUNCIE         CLOUDY    59  51  75 SE8       29.79F
RICHMOND +     MOCLDY    50  46  87 SE5       29.81S

$$

INZ060-061-067>069-081>083-085>088-250900-
SOUTHWEST INDIANA

CITY           SKY/WX    TMP DP  RH WIND       PRES   REMARKS
EVANSVILLE     CLEAR     54  50  86 CALM      29.75S
HUNTINGBURG *+ CLEAR     56  52  86 SE6       29.76S
WASHINGTON +   CLEAR    N/A N/A N/A MISG      29.75S

$$

INZ062-063-066-070>080-084-089>092-250900-
SOUTH CENTRAL AND SOUTHEAST INDIANA

CITY           SKY/WX    TMP DP  RH WIND       PRES   REMARKS
BEDFORD +      CLEAR     54  50  87 CALM      29.76F
BLOOMINGTON    CLEAR     57  50  77 S3        29.76F
MADISON *+     CLEAR     54  52  94 CALM      29.80S
NORTH VERNON + CLOUDY    59  54  82 CALM      29.79R
SEYMOUR +      PTCLDY    52  50  93 CALM      29.78S

$$




USA.gov is the U.S. government's official web portal to all federal, state and local government web resources and services.